CAPE
1432 1271 1622 1800 1657 1788 2050 2315 2374 2434 2488 2555 2496 2464 2478 2340 2393 2328 2284 2006 1801 1620 1384 1434 1527 1379 1353 1477 1184 995 1876 2220 2652 2646 2898 2816 2485 2448 2390 2535 2516 2748 2667 2736 2854 2911 2949 3043 3000 3028 2940 2796 2892 3009 2896 2775 2921 2805 2859 2680 3066 3315 3300 3334 3311 3450 3377 3101 3033 2953 3023 3094 3199 3301 3168 2976 2907 2726 2512 1976 1734 1625 2145 2667 2698
1164 744 1525 2149 1764 1962 1956 2258 2382 2498 2444 2665 2592 2496 2483 2399 2308 2213 2130 1986 1738 1530 1562 1533 1440 1280 1561 1538 1131 1401 1609 2434 2758 2626 2925 2822 2498 2283 2542 2263 2531 2492 3008 2620 2646 2893 2892 2994 2921 2922 2834 2834 2847 2881 2951 2890 2811 2828 2793 2929 2919 3052 3280 3453 3464 3515 3446 3436 3398 3211 2988 2877 2993 2959 2872 2867 3155 3178 3247 2570 1615 1854 2538 2704 2661
1247 1072 2386 1694 1807 2078 2112 2256 2390 2524 2613 2466 2400 2514 2362 2305 2373 2240 2177 1940 1792 1729 1680 1512 1349 1278 1158 1146 1325 1664 1769 2298 2806 2870 2837 2477 2258 2511 2715 2784 2779 2603 2601 2501 2675 2931 3017 2795 2678 2803 2769 2838 2886 2889 3183 3080 2986 2849 2735 2639 2660 2943 3205 3383 3490 3500 3411 3418 3435 3344 3084 3008 2934 2821 2745 2925 2949 3078 3164 2742 2160 2200 2148 2556 2672
1813 1189 1723 2196 1850 2048 2032 2287 2316 2376 2417 2291 2376 2415 2469 2244 2207 1938 1756 1758 1662 1725 1954 1916 1641 1367 1319 1508 1435 1941 2246 2714 2411 2456 1854 2291 2307 2705 2799 2635 2513 2609 2812 2857 2984 2992 2742 2779 2671 2822 2854 2891 2982 2971 2940 3102 2804 2737 2518 2400 2429 2869 2967 3079 3104 3057 3268 3614 3467 2661 2594 2584 2848 2900 2936 2974 2927 3259 3298 3248 3212 3108 3030 2926 2785
2028 2392 1550 2340 2238 1747 1780 1766 2292 2468 2396 2337 2276 2187 2234 2237 2122 2042 1804 1839 1890 1853 2058 2204 2098 1744 1655 1691 2170 2277 2136 2007 2038 2066 2373 2319 2325 2334 2757 2615 2874 3010 2548 2870 2795 3016 2780 2754 2800 2931 2858 3045 3028 2976 2834 2988 2573 2403 2540 2686 2744 2923 3081 3031 2817 2563 2603 2983 1899 1474 1954 2401 2853 2831 2762 2915 2864 2871 3146 3136 3019 2900 2904 3085 2960
1705 2411 2596 2357 1544 2048 1944 2021 2306 2284 2243 2229 2265 2230 2128 2126 2125 2056 1800 1819 1995 2178 2188 2248 2502 2240 2055 2460 2358 2460 1764 1853 1889 2471 2651 2664 2604 2896 3120 3012 3022 2724 2901 2881 2699 2765 3003 2735 3099 2888 2957 2867 2733 2782 2839 2972 2654 2326 2383 2499 2950 3032 3098 2826 2641 2295 2027 2396 2372 2523 2411 2406 2475 2642 2831 2849 2758 2840 2855 2972 3068 3001 3098 3265 3368
1369 2194 2337 2518 2476 2339 2034 2219 2326 2433 2430 2250 2174 2208 2142 2117 2150 2050 1938 1864 2052 2008 2072 2243 2242 2252 2198 2432 2604 2210 1915 1842 1968 2269 2616 2591 2662 3060 2955 2503 2769 3148 2910 2418 2569 2462 2542 2681 3081 2970 2653 2664 2670 2695 2838 2923 2980 2811 2589 3022 3071 3177 3215 3132 2580 2827 1927 2324 2393 2305 2392 2334 2292 2660 2747 2664 2684 2706 2728 2837 3036 3087 3136 2867 2565
1372 1830 2042 2260 2440 2382 2321 2221 2220 2244 2380 2264 1998 1983 2020 2055 2091 2055 1948 1888 1942 1959 1992 2120 2038 2403 1730 1736 1909 2081 2591 2468 2304 2450 2614 2798 2938 3010 2890 2507 3001 3019 3021 2969 2378 2794 2880 2828 2878 3042 2942 2890 2838 2819 2563 2924 3008 2973 2954 3367 3368 3263 3199 3049 2578 2143 2056 2662 2924 2349 3066 2532 2324 2630 2984 2881 2800 2718 2650 2778 2943 2813 2741 2836 3033
1424 1392 1855 2096 2478 2546 2510 2382 2180 2066 2183 2306 1966 1914 2150 2142 2000 1290 1759 1784 2030 2089 1846 1730 1869 1788 1468 1334 1531 2019 2253 2477 2563 2525 2639 2870 2728 2557 2619 2792 2933 3015 2892 2720 2855 2579 2389 2726 2783 3020 3084 2868 2902 3016 2995 2982 2993 3160 3291 3159 3136 2985 3041 3154 2514 2278 2414 2780 2954 2725 2734 2509 2250 2510 3002 2821 2765 2658 2589 2638 3038 2879 2655 2687 2531
890 1578 1917 2032 2387 2525 2316 2150 2052 2196 2329 2240 2087 2162 1991 2165 2041 1773 1543 1577 1976 2061 1886 1697 1747 1551 1255 1243 1617 2130 2234 2564 2705 2771 2734 2823 2595 2534 2100 2743 2642 2908 2907 2936 2980 2341 2872 2807 2845 2932 2982 2986 2923 2939 2978 2933 2913 3230 3215 3239 3102 3144 3120 2972 2259 1978 2586 3060 3024 2174 1662 2102 2114 2256 2914 3063 3037 3011 3224 2948 3107 3096 3098 3010 3064
1405 986 1486 1852 2162 2508 2240 2240 2129 2271 2102 1918 1941 1813 2053 2163 2119 1672 1550 1604 1615 1745 1566 1512 1498 1504 1622 1532 1361 2074 2089 2649 2759 2844 2841 2617 2399 2454 2299 2771 3035 2952 2691 2924 2848 2997 2922 2836 2974 2817 2785 2895 3042 2980 3076 2968 3088 3190 3090 3110 3026 2948 2836 3146 2947 1149 1632 1906 2003 2305 2638 2616 2400 2603 3086 2949 2921 2879 2887 2875 2990 3008 3047 3088 3086
1594 1478 2146 2232 2958 2375 2350 2332 2194 1974 1964 1711 1891 1993 1929 2092 2232 1664 1744 1648 1559 1350 1394 1439 1525 1776 1938 2065 1586 1967 2160 2439 2636 2502 2617 2634 2649 2974 2986 2877 3104 2908 2836 2897 2931 3066 3174 2987 3220 2978 3200 3124 3229 2842 2703 2873 2927 3099 2984 2933 2942 2944 2805 2957 2957 1631 1884 2457 2696 2442 1911 2151 2582 2806 2791 2708 2623 2635 2702 2912 2977 2917 2884 2903 3028
1619 1404 1986 2001 2120 2379 2143 2110 2055 1986 1554 1632 1841 1892 1997 2113 2238 2158 1479 1266 1484 1612 1463 1489 1587 1933 1864 1568 1425 1817 2131 2342 2290 2561 2581 2342 2520 2582 2770 2966 2705 2920 2802 2779 2839 2868 2904 3180 3272 3181 3236 3196 3245 2979 2840 2887 2728 2439 2353 2226 2171 2781 3003 3660 1567 1790 1818 2070 2462 2092 2235 2440 2587 2507 2249 2422 2534 2514 2509 2560 2691 2540 2653 2757 2740
1644 1706 1485 1655 2122 2935 2396 2280 1978 1722 1910 2027 2024 2261 2139 2065 1954 1778 1505 1531 1491 1562 1596 1604 1940 2049 2115 1752 1218 1529 1714 1984 2156 2328 2354 2401 2439 2559 2588 2528 2402 2565 2516 2574 2757 2986 3026 3060 3117 3080 3151 3057 3169 3311 3173 3221 3092 2916 2674 2582 2325 2460 2789 2486 1606 1896 2056 2119 1902 2031 2149 2259 2637 2623 2597 2724 2733 2556 2497 2341 2256 2278 2261 2256 2217
1436 1577 1875 2030 2493 2651 2661 2473 2496 2295 2388 2113 2137 2314 2210 2222 1896 1558 1735 1611 1632 1698 1647 1886 2287 2027 1642 1670 1438 1234 1794 1914 2076 2132 2465 2359 2251 2260 2474 2611 2576 2694 2554 2551 2874 2734 2925 2908 3030 3023 2933 3137 3195 3348 3268 3305 3206 2981 2769 2570 2573 2119 2664 1469 876 1331 1795 1645 1845 1379 2029 2426 2569 2570 2484 2498 2582 2757 2676 2537 2552 2306 2144 1978 1938
1533 1816 1845 2034 2619 3036 3039 2814 2470 2311 2245 2366 2233 2256 1989 2027 1952 1864 1784 1712 1803 2113 1956 1900 1964 2009 1733 1345 1610 1797 1925 2112 2206 2303 2256 2430 2358 2246 2431 2658 2609 2304 2304 2549 2829 2980 2947 3026 2883 3158 3032 2823 3071 3363 3063 3307 3317 3272 3016 2627 2674 2492 3107 4156 491 1239 1410 1242 1659 1606 1860 2400 2166 2224 2294 2455 2676 2631 2594 2580 2651 2609 2198 1961 1898
1613 1844 1924 2347 2587 2913 2187 2736 2464 2128 2115 2008 2048 2042 1682 1592 1559 1557 1699 1850 1790 1757 2060 1858 2175 1657 1611 1803 1764 1494 2144 2240 2312 2500 2430 2417 2174 2132 2238 2535 2556 2039 2151 2511 2706 2940 2674 2806 3113 3190 3114 3045 3053 3382 3084 3138 3188 3382 3402 3135 2837 3189 2929 3745 976 982 1169 1683 1683 1533 1958 2118 2302 2234 2155 2344 2484 2445 2547 2638 2650 2615 2590 2536 2516
1548 1610 2135 2095 2085 2372 1530 2169 2554 2516 2240 2090 1992 1834 1593 1870 1839 1797 1690 1676 1646 1590 2032 2013 1973 1447 1700 1797 1830 1673 2066 2130 2347 2323 2646 2384 2304 2276 2673 2906 2794 2675 2510 2460 2520 2804 2539 2711 2914 3072 3080 3260 3039 3100 3007 3078 3220 3381 3366 3239 2704 3671 3373 3984 1104 1241 1128 1630 1350 1685 1224 2309 2287 2426 2521 2458 2556 2562 2421 2493 2432 2543 2590 2566 2531
1242 1274 1568 1780 1626 2226 1161 2344 2145 2308 2484 1861 2016 1834 1522 1258 1502 1512 1731 1546 1388 1450 1554 1736 1758 1769 1818 1632 1792 1799 1971 2099 2401 2516 2328 2562 2322 2183 2526 2752 2805 2665 2614 2654 2732 2867 2862 2785 2934 3027 2952 3044 3069 3180 3128 3066 3160 3206 3413 3415 3810 3741 4147 4165 882 743 1222 1123 1588 1619 1753 2406 2384 2290 2313 2232 2207 2244 2110 2163 2234 2025 1998 2374 2317
878 904 1078 1600 1612 1714 2167 2320 2212 2015 2052 1932 2162 1981 1628 1365 1409 1481 1514 1482 1514 1408 1270 1542 1491 1539 1624 1567 1719 2142 2046 2226 2289 2318 2447 2780 2635 2550 2511 2428 2583 2341 2809 2866 2881 2830 2775 2960 3068 3120 3199 3282 3343 3378 3336 3151 3288 3296 3456 3601 3829 4065 3492 858 1615 1488 947 1219 1523 1374 2424 2543 2491 2423 2316 2029 1950 1960 1944 2007 2013 1846 2085 2107 1973
664 1346 1967 1917 1849 2141 2367 2338 2382 2166 1921 2072 1658 1702 1757 1474 1568 1751 1461 1349 1312 933 1162 1225 1176 1366 1485 1493 1771 1927 2039 2172 2431 2546 2240 2712 2673 2496 2682 2702 2563 2551 2476 2452 2662 2812 2866 2912 3086 3218 3308 3353 3414 3350 3418 3456 3368 3642 3293 3922 3617 4075 1152 1667 939 1220 638 1134 1849 1693 2513 2492 2426 2221 1970 1574 1661 1702 1568 1665 1603 1801 1774 1746 1938
935 1516 2078 1960 1798 1859 2330 2243 2173 2272 2023 1882 1858 1889 1876 1793 2177 2134 1692 1518 1401 1205 1243 1318 1131 1585 1260 1759 2377 1885 2148 2500 2429 2222 2892 2495 2568 2413 2724 2533 2442 2367 2414 2506 2589 2705 2737 3004 3324 3387 3177 3010 2954 3041 3063 3509 3680 3186 3987 3553 3728 2727 2087 1817 1418 1423 1117 2001 1742 2158 2258 2453 2254 2020 1825 1946 2096 2055 2016 1873 1957 2161 2141 2050 2157
1174 1528 1762 1714 1762 1705 1824 2004 2154 2278 2070 1808 1819 2224 1786 2414 2450 1339 1759 1694 1315 1915 1251 1224 1680 2298 1912 2823 3037 3035 2222 2316 2807 2140 2449 2350 2704 2750 2849 2721 2556 2494 2571 2655 2672 2769 2990 3109 3268 3154 3202 2908 3071 2946 2102 2541 3033 3631 3799 3312 3997 1165 1429 1792 1637 1447 1597 2166 1964 2425 2263 2602 2495 2394 2260 2167 2249 1912 2142 2314 2252 2367 2444 2498 2426
1321 1618 1322 1767 1702 1682 1748 1864 2086 2139 1843 1519 1893 2200 2490 2102 2141 2210 1394 1239 1005 1234 1178 1423 1257 1352 1575 2156 2724 2486 1904 1916 2114 2461 2313 2134 2834 3016 3049 2630 2797 2879 2724 2830 2787 2700 2795 2789 2758 2833 2734 2655 2435 2763 1569 1988 2433 2666 2490 3006 1347 1418 2170 2197 1350 1475 1025 2028 1699 2531 2369 2406 2521 2269 2319 2096 2234 1901 2023 2179 2387 2404 2546 2534 2751
1419 1474 1106 1666 1900 1822 1743 1892 2087 2054 1851 1530 1721 1604 1296 1497 1554 1460 1880 1422 1160 1412 1056 1259 1106 1138 1473 2079 2285 2174 2611 2249 2613 2833 2692 2567 2643 2763 3030 2453 2443 2332 2584 1925 2193 2100 2480 1796 2138 2385 2190 2313 2344 1271 1460 1502 1414 1606 1142 1262 1082 2117 853 1220 1442 1326 1244 2341 2008 2410 2388 2293 2596 2439 2360 2205 2079 2160 1893 2070 2177 2065 2138 2256 2339
1328 1363 1467 1743 1893 1708 1649 1776 1790 2072 1924 1702 1263 1611 1362 1948 2060 2258 2067 2056 2034 1568 1529 1223 1205 1419 1906 2481 2274 2246 2316 2743 2377 2533 2156 2703 2692 2424 2285 2433 1488 1886 2980 1755 1483 2022 2580 1244 1696 1971 2270 1220 1140 1240 773 1216 888 877 910 1229 1055 1353 1192 1135 1161 1802 1942 2324 2509 2368 2557 2224 2650 2691 2407 2462 2427 2408 2307 2258 2318 1923 2106 2244 2217
811 1614 1513 1628 1589 1755 1760 1622 1743 2071 2048 1685 1684 1992 1589 1709 1681 1985 2216 2272 2287 2215 1419 1718 1398 1394 2226 2411 2727 1627 1845 2654 2767 2562 2570 2883 2115 2133 2288 1504 1014 1469 1513 1276 1532 1811 1410 1502 1424 1155 1024 698 464 153 1388 1126 1248 1376 1200 1131 1400 1228 1092 882 1122 1313 2046 3083 2660 2828 2632 2342 2657 2672 2590 2652 2639 2620 2491 2397 2382 2283 2184 2417 2492
1418 1344 1486 1510 1465 1542 1986 2307 2317 2096 2205 2060 1962 1503 1598 1387 1704 1822 1598 1366 1926 1163 688 1068 1147 1072 1765 2046 3100 2482 1867 2511 2538 2987 2974 2027 2180 2169 1635 991 1074 1308 1079 1170 1565 1616 1575 1715 1891 1096 1159 1615 1164 1591 788 1008 1278 1639 987 995 1155 1079 1265 886 1196 1455 1555 3249 2828 3012 2877 2362 2776 2617 2818 2773 2826 2790 2775 2654 2460 2547 2536 2660 2676
1384 1255 1482 1364 1466 1218 2000 1534 2300 2216 2115 1894 1864 1964 1830 1820 1507 1240 1514 1635 1926 1225 1243 1586 1337 1267 1648 1848 2309 2560 2140 2293 2319 2376 2173 1909 2054 1329 1104 660 1050 1525 1650 1604 1897 2029 1904 1551 1282 1054 1486 1993 1637 766 1269 678 1128 816 875 798 575 997 901 884 1241 1196 1122 2712 2590 2744 2958 2888 2348 2608 2974 2942 2912 3010 3021 2897 2858 2711 2812 2904 3024
1009 1315 1493 1428 1338 1132 1779 1949 2171 2235 1876 2039 2088 1986 2094 1972 1972 2108 1885 1818 1768 1994 1122 1470 1941 1570 1360 1378 1404 2389 2150 2621 2637 2080 2382 2051 1586 1014 1136 1395 1825 1938 1874 2046 2080 1914 1774 1670 1814 1988 2003 2313 1799 838 1723 1244 593 582 866 857 981 498 839 898 1111 706 1004 2331 3164 2455 3368 2900 2643 2634 2667 2956 3144 3257 3344 3266 3216 3226 3228 3316 3376
951 1124 1399 1479 1219 1314 1621 1901 2238 2327 2060 1803 2163 2109 2053 1904 2181 2214 1831 1726 1710 1900 1473 790 937 1485 1586 1370 1443 1837 2155 2074 2275 2541 1965 1671 1404 1100 1208 1831 2144 2097 1943 2024 2350 2271 2033 1868 2020 2405 2403 2410 2155 1486 2091 826 682 884 779 582 390 540 529 558 515 545 606 1027 2441 2002 3035 3208 3016 2778 2610 2980 3051 3327 3512 3541 3501 3503 3664 3711 3795
1021 1191 1375 1466 942 1334 1544 1772 2155 2164 1938 1975 2489 2391 2231 2357 2273 1950 1459 1894 1959 1925 1804 1439 1031 1558 1701 1579 2166 2184 2036 2096 2378 1906 1550 1249 1062 1352 1757 1828 1818 1906 1958 1890 2433 2276 2315 1887 2022 2164 2271 2571 2135 1285 1760 1000 1074 436 538 518 869 563 696 914 460 434 526 1017 1476 3191 2177 2588 3101 3070 2700 2840 3107 3279 3311 3478 3522 3558 3590 3726 3802
1163 1295 1070 1247 1039 1257 1442 1790 1984 1986 1757 1605 1980 2187 2151 2163 2312 2021 1963 1503 1780 1403 1456 1785 1982 2432 2289 2316 3467 3249 2656 2412 2339 1686 1196 919 1299 1742 2123 1946 1914 2142 2170 2515 2658 2237 1897 1659 1992 2504 2374 2714 1788 939 1156 406 534 1176 749 636 448 424 350 355 402 384 339 710 1304 1253 3097 2044 2043 3322 2956 3132 3391 3530 3549 3736 3839 3916 4026 4019 4215
1269 1357 1033 1138 1028 1268 1257 1674 1823 1847 1562 1532 1788 1849 2034 2086 2055 1920 2073 2132 1818 1687 1699 2078 2429 2473 2754 2998 3188 2957 2358 2432 2333 1612 1293 1312 1649 2016 1948 2073 2376 2784 2365 2103 2033 2126 1825 1970 1804 2174 1614 2283 1620 1593 1269 871 742 964 526 686 944 756 713 525 326 391 710 547 1103 1219 1060 2775 3328 2376 2443 3201 3502 3553 3821 3805 3937 4058 4316 4413 4495
1251 1146 1121 1148 1068 1056 1217 1464 1783 1660 1661 1556 1665 1700 1847 1903 1863 1924 2051 1992 1993 2087 2123 2101 2207 2260 2434 2826 3021 2986 2632 2487 2424 1958 1519 1614 1918 2081 1998 2144 2444 2310 2141 2074 2360 1954 1622 1935 2057 2239 2276 1717 1444 614 1392 1025 207 92 1058 1179 484 1183 664 580 498 333 782 720 913 987 1196 1404 2305 3690 3122 2169 3274 3982 3740 3516 3655 3833 3696 4116 4133
1223 1174 1262 1053 1114 1038 1354 1368 1736 1746 1822 1673 1802 1792 1606 1732 1692 1891 2098 2066 1790 1711 1881 1653 1821 1878 1950 2248 2659 2727 2653 2764 2662 2619 1698 1532 1446 1834 2180 2646 2286 2721 2640 2335 2748 2106 2190 2578 2494 2476 2281 2147 1566 314 668 876 866 467 489 520 439 728 645 510 809 647 396 512 527 821 883 746 1189 1273 1532 2277 3309 2533 3944 3750 3755 3594 3933 3935 4233
1242 1126 1143 1298 1252 582 1142 1154 1509 1578 1586 1682 1820 1953 1974 1928 1769 1738 1931 2052 1679 1584 1546 1644 1656 1688 1748 1967 2451 2374 2714 2873 2936 3277 2451 1998 1669 1631 1785 2416 2776 3054 2470 2482 2396 2024 1847 794 2659 2504 2982 3209 1928 1040 199 318 605 313 647 678 539 870 385 908 640 452 618 765 318 343 434 246 1521 651 1350 624 1167 3198 3298 3116 4014 4010 4135 4151 4420
1272 1149 1075 1221 1217 431 1093 995 1580 1723 1713 1791 1873 1775 1774 1647 1760 1744 1734 1703 1499 1467 1503 1428 1405 1614 1716 2004 2220 2164 2495 2678 2833 3435 3851 1953 1760 2140 2392 2817 3126 3153 3356 2537 2502 1641 2080 2309 2760 2589 2522 2911 2288 1463 1146 934 557 358 757 485 452 471 280 648 773 588 708 618 466 517 422 163 615 731 283 602 539 472 1640 3217 3272 3851 3616 4447 4243
1041 1201 1232 1051 1380 779 1359 1108 1400 1619 1739 1919 1862 1843 1632 1717 1670 1616 1876 1730 1480 1437 1304 1398 1421 1233 1419 2104 2323 1972 2275 2531 2880 3517 3576 2287 1818 2243 2669 3319 3171 3540 3034 2384 1867 2696 3375 3080 3421 2773 2574 1718 2126 1614 1130 916 597 462 298 459 252 740 801 610 379 679 533 369 322 475 437 394 512 534 685 402 545 739 798 918 3094 3565 4535 3889 3585
1280 1333 1548 1303 1617 1467 1411 1104 1335 1614 1840 1862 1841 1465 1469 1774 1455 1612 1739 1658 1546 1342 1346 1383 1096 1308 1647 1653 2043 1713 2093 2347 2628 3106 3806 2895 2264 2263 2925 2598 3252 3228 3245 2664 2340 2035 2706 3005 2756 2501 2678 1906 1853 820 410 480 447 428 441 383 634 563 826 628 714 432 326 545 648 193 340 39 445 300 495 391 548 455 750 1012 2479 1476 1424 2329 3950
1720 1026 1599 1564 1478 1728 1638 1161 1164 1491 1792 1780 1778 1426 1537 1638 1468 1377 1428 1554 1516 1311 1251 1230 1116 1657 1138 1338 1967 1525 1911 2301 2894 2976 3073 3004 3039 3126 2695 3538 3207 3256 3234 3107 2996 3396 2787 2936 2334 3216 2662 1900 1812 867 496 589 596 429 74 288 482 829 440 629 671 733 375 328 323 117 360 270 284 356 377 386 445 239 257 1691 2302 1403 1290 2306 6023
1797 1210 1681 1668 1494 1750 1561 1302 1153 1316 1508 1623 1631 1640 1542 1658 1401 1319 1383 1592 1576 1398 1589 1270 1474 1179 1277 1619 1554 1540 1954 2465 2735 3566 3498 3098 3176 2773 2930 4257 3491 3467 3854 3683 3921 3092 3186 2968 2287 2859 2123 1534 1812 1071 1008 1292 689 348 352 253 248 197 545 375 102 284 617 545 392 326 357 247 391 270 302 324 374 305 410 472 1378 1129 2045 2748 2785
1716 1272 1740 1813 1577 1901 1717 1498 1357 1228 1250 1430 1666 1859 1448 1472 1461 1313 1258 1478 1490 1572 1447 1375 1405 1605 1558 1424 1836 1859 2126 2748 2998 2944 2998 3476 3208 3618 3057 3144 3526 3469 3589 3662 3058 2860 2589 2368 2457 2613 3031 1860 938 733 1132 1034 1519 134 153 146 73 135 40 304 273 589 224 631 318 295 415 284 212 445 622 612 386 435 498 1466 1392 2078 3332 3968 2923
1644 1402 1668 1708 1574 2029 1972 1726 1655 1474 1284 1386 1630 1705 1665 1609 1923 1568 1696 1288 1381 1714 1686 1842 1548 1034 1130 1069 2507 2249 1977 2722 2909 2371 2747 3366 3827 3398 2917 3198 3861 3948 3422 3574 3272 2549 2451 2164 2759 3099 2869 2862 1324 1177 801 604 629 772 527 204 153 13 234 132 467 434 170 195 177 229 276 132 189 284 414 307 393 351 566 614 740 1354 3940 3476 4171
1478 1556 1590 1572 1388 2174 1994 2001 1743 1582 1364 1629 1775 1826 2170 2150 2636 2624 2616 2057 1917 2208 2065 1546 1844 585 877 1142 2249 2247 2331 2614 2625 2751 2595 3937 3845 3427 3673 3494 3820 3233 3071 3223 2515 2430 2228 2963 2583 2805 2384 2698 2578 1940 1404 929 1312 1001 1762 778 325 0 236 414 156 591 226 207 108 136 182 12 58 242 418 501 316 464 657 587 1264 1350 3045 4245 4168
1364 1410 1432 1292 1475 2178 2175 2173 1889 1684 1607 1826 1854 2013 2259 2368 2354 2435 2521 2520 2530 2254 2205 1454 1261 713 555 753 2082 1957 1838 2768 2627 2836 2536 2924 2764 3911 3570 3937 3610 2748 2574 3095 2763 2443 1491 3184 1936 2494 3542 2708 3105 2928 1996 581 560 1040 542 483 808 1432 918 839 328 2148 1021 172 63 404 457 965 402 213 458 199 410 498 397 676 486 1072 1727 2459 2579
1322 1290 1567 1352 1375 2096 2297 2323 1978 1764 1672 1985 2159 2154 2224 2152 2159 1648 1812 2015 1847 1644 1671 1331 1218 1058 951 579 1895 1791 2266 2495 2608 2867 3153 3200 3834 3896 4491 3471 3422 3456 2474 2929 2548 2433 1791 2472 2962 3105 3387 3033 3169 3750 2888 2014 808 603 888 780 448 402 1028 808 1329 581 1396 1422 1337 486 208 372 545 698 1154 545 619 990 518 497 332 473 2096 2771 3092
1162 1273 1495 1455 1707 1766 2569 2402 2254 1930 1736 2167 2415 2283 2160 2050 1859 1321 1271 1338 1199 1219 1542 1328 1328 1143 1531 1404 1869 1438 1940 2332 2478 2801 3769 3856 3299 4136 3419 3420 3583 3222 2979 2758 2636 2410 2669 3424 2850 3748 3379 3488 2923 2634 2442 2425 1886 1854 701 885 1182 913 626 412 650 473 860 1508 1348 475 364 788 1013 2267 1126 773 1691 858 557 1617 1374 1213 1211 2732 3077
928 1132 1330 1652 1892 1837 2387 2513 2333 2255 1888 2215 2417 2152 2005 2014 1842 1321 1056 930 513 827 1283 1429 1531 1336 1831 2102 1888 1650 1884 1991 2608 2980 2714 3479 3357 3615 4486 3918 3581 3378 2590 2582 2361 2647 2905 3831 3678 3333 3230 3038 2641 2956 2648 2510 2047 1875 1476 2213 1529 1204 1002 889 709 1009 912 1610 1153 723 1540 1468 880 1062 1143 612 1844 467 463 1432 1875 1571 3301 3629 3231
775 882 1051 1633 2028 1886 2181 2302 2501 2324 2239 2312 2140 2078 1897 1928 1818 1068 1062 955 667 719 1019 1384 1738 2199 2133 2270 2312 2205 1672 1765 1735 2540 3131 2861 3356 3539 3166 3030 2932 2706 2459 2473 2942 3453 3444 3168 3522 3078 4171 3727 3900 2788 2696 3091 2442 1968 2026 2262 2193 1645 1396 922 1101 770 1041 2131 1639 1159 1908 1447 2174 1994 1491 2502 722 1335 642 1223 1015 2455 3513 2520 2787
772 812 916 1380 2140 2324 2400 2212 2531 2409 2428 2555 2138 2123 1936 1954 1796 1488 1341 1318 1046 1072 1179 1197 1426 1774 1898 1824 1978 2076 1922 1459 1135 1376 2014 2300 2596 2956 2800 2594 2660 2842 2478 3055 2815 2538 2694 2323 2512 3242 3065 3159 3259 3539 3108 2281 1354 1634 1448 1212 1561 828 991 1622 1318 788 790 1305 1754 1844 619 1522 1184 1391 1860 1028 1240 1024 690 1638 982 1420 2674 2283 2548
Wind_Speed
1 5 5 5 3 1 1 2 2 1 3 4 7 8 7 6 6 8 9 8 8 7 8 8 6 6 5 4 4 7 7 13 4 2 3 4 5 6 6 6 8 6 8 11 10 8 7 6 6 7 7 7 6 4 4 3 5 5 6 7 7 6 3 3 2 2 3 6 8 7 5 2 1 2 5 6 6 6 6 5 0 3 4 6 7
6 7 8 4 4 4 2 2 3 2 2 2 4 5 4 4 5 6 7 6 6 5 5 5 3 3 2 3 4 6 5 8 0 1 1 4 7 4 5 8 8 9 9 10 10 8 8 6 6 5 6 6 5 5 4 3 5 5 6 7 8 6 4 3 2 2 4 6 8 7 5 2 1 4 5 6 8 7 8 10 4 6 8 8 8
6 6 6 4 4 3 2 3 3 2 2 2 3 4 2 2 3 4 4 4 4 3 2 2 3 1 2 4 5 6 12 3 1 1 3 4 7 7 7 6 8 8 9 9 9 9 8 7 5 4 4 5 5 4 4 5 4 5 6 8 8 7 4 3 3 3 5 8 8 7 4 2 4 5 5 4 5 7 8 8 9 8 9 8 8
2 4 4 3 4 2 2 4 4 3 3 3 3 4 4 3 4 4 3 4 4 4 3 2 2 3 3 5 5 8 4 5 2 4 3 5 4 2 6 8 8 9 8 8 9 9 9 7 5 4 3 4 5 4 4 5 4 3 5 6 7 6 4 4 3 5 7 10 10 5 5 5 5 5 4 4 3 4 6 7 9 9 9 9 8
2 2 2 4 4 3 3 2 3 3 3 4 4 4 5 5 4 3 1 3 4 4 4 3 1 2 4 6 7 4 11 4 3 2 5 1 5 4 7 8 9 8 8 8 9 8 7 7 5 4 4 4 4 4 4 4 4 3 5 6 4 3 2 1 2 7 10 12 6 5 5 5 6 5 4 4 5 6 6 7 8 8 7 7 7
2 2 2 2 2 3 3 2 3 2 2 3 3 3 3 3 3 3 3 3 3 5 6 9 2 4 7 7 5 7 13 3 2 1 6 3 4 6 7 7 7 8 8 8 9 7 8 7 6 5 5 5 5 5 5 3 3 3 3 5 3 3 3 1 4 5 5 5 5 8 6 5 5 6 5 5 6 6 6 7 8 8 7 6 4
3 2 1 2 2 1 3 2 1 1 2 2 2 2 2 2 3 3 4 2 3 5 7 8 4 7 5 6 6 7 11 7 4 3 3 5 6 7 8 7 6 7 7 7 8 7 8 8 6 5 6 6 5 4 3 3 4 3 1 3 3 3 2 4 8 9 6 13 11 8 7 5 5 6 5 6 6 6 6 5 6 6 6 6 5
2 2 1 2 2 3 3 2 1 3 2 2 3 3 2 2 3 3 3 4 3 3 5 7 11 11 9 12 11 5 7 7 4 4 5 6 7 7 8 7 6 6 6 6 7 7 6 7 6 5 4 4 4 4 5 4 3 3 4 5 4 2 5 6 6 7 13 12 10 10 10 5 4 5 5 6 7 7 6 5 4 4 4 3 2
0 3 2 2 2 6 5 4 3 3 3 5 3 2 1 2 5 3 2 3 2 3 4 6 8 8 9 5 4 2 2 6 5 5 6 6 7 6 5 7 4 5 5 6 6 6 6 5 4 4 4 5 3 3 3 3 2 2 4 4 2 4 7 10 9 8 15 6 7 8 7 5 3 4 4 5 6 6 6 5 4 3 4 4 4
8 3 4 5 3 7 5 4 3 3 5 5 3 1 2 3 3 1 2 2 1 3 3 4 4 4 6 3 4 3 2 4 5 5 5 5 7 5 4 3 5 4 5 5 5 5 4 3 4 4 4 4 3 3 3 3 3 2 3 1 4 7 10 12 10 5 9 7 5 6 7 5 4 5 3 4 4 5 6 7 6 5 3 2 2
3 5 6 5 6 7 5 5 4 4 6 6 4 2 3 3 3 2 3 2 1 1 2 3 1 1 1 7 4 3 1 4 4 5 6 7 8 5 4 3 5 4 4 4 4 3 2 3 4 5 4 3 2 3 3 2 2 2 1 1 5 10 9 14 18 7 5 4 3 4 3 3 4 4 2 2 2 3 4 4 4 3 3 4 5
2 7 7 7 9 8 6 6 5 4 6 6 3 2 2 4 4 3 3 3 3 3 1 1 1 2 3 9 6 1 3 5 6 6 7 9 9 8 6 6 6 5 4 5 5 3 3 3 4 6 5 4 2 1 3 1 0 1 0 3 7 10 13 14 16 4 4 6 5 5 3 2 2 1 2 2 2 3 3 3 3 3 4 5 6
1 5 5 5 5 9 8 7 6 4 4 4 4 3 3 4 4 5 4 3 3 4 3 3 2 0 7 10 9 5 2 5 7 7 10 9 7 7 7 7 7 5 5 4 5 4 3 4 6 6 6 5 4 2 1 0 1 2 2 4 8 11 14 16 4 5 5 5 5 5 4 3 3 2 2 1 2 3 3 4 3 4 5 6 7
2 5 5 5 5 9 10 8 7 6 5 4 4 4 5 6 3 4 5 4 4 4 4 3 1 3 9 12 10 4 2 6 8 8 8 6 5 4 4 6 6 5 7 6 5 4 3 3 6 7 6 5 4 3 2 1 2 2 3 5 9 14 16 16 3 5 6 6 4 2 3 4 3 2 2 3 3 3 3 4 4 6 8 9 9
4 4 4 7 5 7 11 10 9 7 6 6 5 4 6 8 5 5 6 4 6 5 5 6 5 7 13 11 12 4 3 7 6 6 7 6 5 7 6 6 6 7 8 8 6 4 2 1 3 4 5 5 4 2 2 2 2 3 5 8 9 15 17 11 6 5 6 7 6 2 3 3 2 3 4 4 5 5 5 5 6 6 8 10 11
5 5 5 5 7 6 6 9 9 8 8 7 7 8 6 7 7 7 7 5 5 6 6 8 9 13 11 7 13 1 7 9 8 7 7 7 6 7 8 6 6 7 7 6 5 5 3 3 2 3 4 4 3 5 2 2 3 4 6 8 13 14 18 17 5 6 7 7 7 6 4 4 4 5 5 6 6 6 5 6 7 8 9 9 10
5 4 4 7 7 5 6 5 7 9 7 6 7 9 7 5 6 8 7 5 6 6 6 9 10 17 10 6 11 8 6 9 10 9 8 8 7 8 7 4 4 5 5 4 6 5 3 3 3 3 4 4 5 5 2 3 4 4 6 11 13 15 20 21 6 9 9 8 8 6 6 7 6 6 6 5 6 5 5 6 8 9 9 9 10
3 4 5 5 3 3 5 5 6 4 5 6 8 8 6 6 7 8 7 6 8 5 6 6 11 15 10 5 11 8 9 9 9 10 9 8 7 7 5 5 5 5 5 3 5 6 4 4 4 4 5 6 4 2 3 4 4 4 6 11 11 16 20 23 7 7 8 8 7 7 8 6 6 7 6 6 5 5 7 7 8 9 10 10 11
1 3 5 2 4 5 6 4 6 4 3 4 6 6 6 6 7 8 7 8 8 8 8 6 8 13 8 10 7 8 11 11 9 10 11 8 8 8 7 6 6 5 1 2 3 4 5 5 5 4 4 3 3 3 4 5 5 5 7 10 15 17 21 21 4 5 8 9 8 8 8 5 7 8 7 6 5 6 7 8 9 10 10 11 10
2 3 6 6 6 5 4 4 4 5 2 5 5 5 6 7 6 8 7 8 8 8 7 6 8 7 10 13 6 8 13 12 11 10 11 9 7 7 7 7 5 4 4 4 4 5 5 6 6 6 5 4 3 4 5 6 7 8 9 13 15 18 17 8 10 7 9 12 9 8 4 4 6 7 7 6 6 6 7 8 10 10 11 12 11
2 3 2 3 5 4 5 5 5 5 3 6 5 4 7 7 7 6 7 7 12 7 9 7 8 5 8 12 3 8 10 10 10 10 10 8 8 6 5 4 3 5 4 4 4 5 7 8 8 8 6 6 7 7 7 8 9 10 13 13 17 15 11 9 5 9 8 11 9 8 2 5 7 7 7 6 7 6 7 9 9 9 10 11 11
4 3 3 4 4 5 5 6 6 7 5 5 4 5 7 5 7 7 7 8 8 10 12 6 4 7 10 4 5 9 9 10 10 11 11 8 6 6 6 4 4 3 3 2 3 4 7 8 9 9 10 10 11 10 8 10 12 13 13 16 14 12 7 8 9 11 10 10 8 5 2 5 7 8 7 7 7 8 6 8 9 9 9 10 11
5 5 5 6 4 5 6 7 7 7 6 6 4 6 6 4 6 7 6 10 9 10 12 6 7 11 8 9 10 10 10 11 11 10 10 6 7 6 4 2 2 2 1 2 4 5 8 9 11 12 13 15 12 12 8 8 9 14 15 13 14 8 7 7 8 10 11 8 7 2 3 7 8 8 8 9 9 9 9 8 9 11 11 11 11
6 7 7 6 6 6 6 7 8 8 7 5 6 6 6 3 3 3 8 4 11 10 8 7 11 10 9 10 10 9 9 10 8 8 4 7 7 4 2 2 2 2 1 4 5 8 10 12 12 15 15 12 12 14 8 7 8 8 9 11 7 6 6 8 8 10 10 7 7 3 5 8 9 9 9 9 9 10 10 10 10 11 11 11 12
7 7 7 8 9 9 8 9 9 9 7 6 6 6 6 3 2 3 3 7 7 8 9 5 8 7 7 7 8 8 9 9 8 8 9 9 8 8 5 4 5 6 7 6 7 7 11 10 12 14 13 13 12 9 6 6 8 6 8 8 6 10 4 9 9 10 8 7 4 4 7 8 9 10 10 10 11 12 11 10 12 12 11 12 12
7 7 9 10 9 9 9 10 11 10 9 4 5 5 7 4 2 2 2 5 6 10 9 4 4 3 5 5 6 8 8 9 8 8 9 10 9 9 7 6 6 6 8 8 6 7 11 9 11 12 14 11 7 9 5 9 4 8 6 8 7 9 8 8 8 10 7 5 3 6 8 10 10 11 12 13 13 13 13 12 12 11 11 12 12
7 7 8 8 9 8 9 9 12 11 10 9 7 5 4 3 2 1 1 3 5 8 9 4 2 4 5 5 5 6 7 9 9 9 10 11 12 10 9 7 7 6 7 8 6 8 10 10 9 10 10 9 5 4 8 5 8 10 6 7 10 6 9 7 8 9 6 4 3 8 10 10 12 13 14 15 16 16 15 14 14 14 12 13 13
6 8 9 8 9 10 8 9 10 10 9 8 7 8 7 6 3 2 1 1 1 8 3 2 1 5 5 6 8 7 7 8 8 10 12 13 11 11 9 8 8 8 8 8 9 9 10 10 11 11 12 12 8 8 3 5 6 12 3 7 8 7 10 7 7 8 5 2 3 8 10 13 14 16 17 17 18 17 16 15 16 17 16 15 15
8 8 8 8 8 10 11 11 10 10 6 7 7 5 6 5 6 6 5 2 2 4 1 2 1 2 5 9 12 9 9 8 8 9 12 13 14 11 9 8 9 9 8 9 10 10 10 9 10 10 12 11 8 4 9 6 7 8 6 4 6 6 9 7 7 8 6 3 4 7 13 16 17 19 19 19 19 19 18 18 17 17 16 16 16
8 8 8 6 8 9 10 10 9 7 7 6 4 6 6 6 6 4 2 4 4 3 6 4 3 3 6 9 14 16 10 9 10 10 13 15 14 12 11 10 10 10 10 10 10 11 11 11 12 11 9 9 8 7 12 8 6 9 11 7 3 4 6 6 7 7 6 3 3 7 16 17 19 20 20 20 19 19 19 18 18 17 16 16 16
7 8 7 5 7 8 8 8 6 4 4 4 4 5 5 5 5 4 3 4 5 4 4 4 6 8 8 10 13 10 6 6 9 14 15 15 14 13 11 11 11 11 12 12 11 12 13 13 12 11 8 8 10 7 11 8 8 4 6 4 6 6 5 5 4 5 4 5 5 8 12 19 19 20 20 20 19 19 18 18 18 17 17 17 16
6 6 5 5 7 8 9 9 6 4 3 3 4 4 5 4 5 6 6 3 3 5 2 5 8 4 7 7 11 11 11 12 13 14 15 15 13 13 13 12 12 12 12 11 12 12 12 10 11 10 9 10 8 8 11 9 7 5 5 7 5 3 6 6 4 4 3 4 7 7 9 12 18 18 19 19 18 18 18 18 17 17 17 17 18
4 5 5 6 7 7 8 7 6 4 3 3 3 4 4 5 5 4 2 4 6 5 4 2 2 1 3 7 9 12 15 14 15 15 15 14 13 13 13 13 11 12 13 13 13 13 11 10 5 7 9 9 9 10 11 6 10 10 4 3 8 8 7 6 4 4 2 4 7 7 8 9 10 17 17 17 17 17 17 17 18 17 18 18 18
4 3 6 6 5 5 5 5 5 4 3 2 2 3 4 3 4 3 3 6 5 3 3 2 2 2 4 6 8 12 14 15 16 15 15 15 13 14 12 12 13 14 13 12 12 13 8 9 6 6 8 10 9 12 11 8 7 6 7 6 7 5 5 4 5 5 4 2 3 3 2 4 7 8 10 15 15 15 16 17 17 18 18 18 19
3 4 5 5 4 5 5 5 5 4 2 2 3 2 3 3 2 3 4 5 4 4 4 3 3 4 5 7 9 12 14 15 16 17 16 15 13 12 11 12 13 13 13 15 15 11 8 7 8 8 9 9 11 13 11 10 7 nan 11 9 6 8 9 10 10 7 5 5 2 3 3 1 3 6 7 7 13 15 15 16 17 18 18 18 18
4 4 4 4 4 5 5 7 7 5 4 2 0 2 3 3 2 4 5 5 5 5 5 4 4 4 6 8 10 12 14 15 15 18 15 14 13 13 14 14 14 15 14 12 15 10 10 13 10 11 11 13 13 8 7 8 9 6 5 7 6 4 6 4 4 1 4 1 3 3 3 2 5 2 1 6 7 12 17 16 17 18 18 18 17
4 5 4 3 4 6 4 7 8 7 6 6 3 1 4 4 3 4 4 7 5 6 5 5 5 5 6 8 10 12 13 14 15 17 15 14 15 17 13 13 14 15 13 9 12 8 7 9 9 11 12 14 13 11 8 8 6 4 4 8 9 8 3 5 5 5 4 5 2 6 5 5 5 7 6 7 9 9 16 18 18 18 18 17 16
4 5 5 4 4 5 5 5 7 7 6 5 4 2 3 5 6 4 5 6 5 6 7 7 6 7 7 8 9 11 12 12 12 14 19 17 14 16 14 15 14 13 12 10 11 7 5 6 8 10 13 15 15 14 12 12 9 6 6 7 5 6 8 7 8 5 2 1 4 4 6 7 9 9 9 11 12 10 13 18 20 18 19 18 17
5 5 4 4 3 4 3 5 5 7 7 5 4 2 2 6 5 5 6 7 7 7 7 8 8 8 7 8 9 10 10 9 10 12 13 13 9 16 15 15 14 13 12 10 9 8 9 10 12 10 11 13 13 15 14 15 11 9 7 6 7 10 5 6 4 5 2 4 5 4 7 6 9 8 8 8 9 12 11 9 12 13 15 22 18
6 5 4 4 3 4 5 4 4 5 5 5 3 2 3 6 5 5 6 8 7 7 8 9 9 9 8 7 9 9 8 8 8 10 14 16 16 14 14 13 13 12 11 11 7 4 5 7 8 10 11 9 9 11 9 10 9 8 11 8 3 3 7 2 4 4 3 5 3 6 9 nan 9 11 14 13 11 12 11 10 11 9 8 9 17
5 6 5 5 5 5 6 5 4 5 4 3 2 2 3 4 5 6 6 6 8 8 9 10 10 10 8 8 9 8 8 8 8 11 14 15 17 16 13 13 12 11 10 10 10 10 6 8 6 7 8 8 8 9 10 11 12 8 nan 11 4 3 1 7 7 7 7 6 8 7 7 10 11 12 12 12 13 10 11 13 11 8 10 9 14
5 6 5 6 6 7 7 6 4 4 4 3 1 2 2 5 6 6 6 6 7 9 9 10 10 8 8 9 10 9 8 9 10 11 13 14 15 13 12 12 11 10 10 9 8 6 6 7 8 6 7 7 8 11 12 11 6 6 8 4 4 2 2 4 4 7 6 6 8 9 8 8 11 15 13 11 10 12 10 11 8 10 11 10 7
6 6 5 5 6 6 6 6 5 4 3 2 1 2 3 5 7 7 7 7 7 9 9 9 9 8 8 8 9 9 8 9 10 12 13 14 13 13 11 9 9 7 6 5 3 4 4 6 6 8 10 7 6 5 6 7 11 7 6 9 nan 2 nan 6 7 2 6 5 6 9 10 12 13 12 13 13 12 10 13 5 10 13 12 10 7
5 4 5 5 4 4 5 6 5 4 2 1 1 0 2 4 8 7 9 8 8 9 8 9 8 7 8 7 9 8 9 10 10 11 12 12 11 10 9 8 7 6 6 6 5 3 3 5 6 6 7 9 7 6 6 6 9 9 7 4 2 nan 1 3 4 4 7 4 6 6 11 10 12 12 11 11 11 11 13 16 14 11 9 9 9
4 4 4 4 2 5 5 6 5 3 1 2 1 1 2 3 6 7 8 8 8 9 9 9 9 8 8 8 8 8 11 11 10 11 11 10 9 9 9 7 7 6 5 3 4 3 3 3 5 7 7 9 12 10 10 6 5 8 5 6 5 nan 4 1 5 3 5 5 4 5 1 nan nan 10 9 10 8 11 8 11 12 11 7 9 10
6 5 3 4 4 5 6 5 4 2 1 3 1 2 1 2 3 4 5 6 7 8 9 8 7 8 8 8 7 8 9 10 10 10 9 8 8 8 8 7 5 5 5 7 6 5 2 5 0 5 5 6 10 6 8 2 3 3 3 2 5 5 3 4 7 3 7 6 nan 11 12 12 10 2 8 5 6 3 9 10 9 13 14 13 11
8 7 4 4 5 6 6 5 3 2 2 3 2 2 2 2 2 3 4 5 6 7 8 9 7 7 9 6 8 7 7 9 8 9 8 8 8 7 7 6 6 6 4 4 3 3 1 2 4 5 6 8 6 9 8 13 7 6 4 5 2 7 4 3 5 3 6 6 5 5 2 4 6 9 6 4 7 14 14 7 9 8 12 11 11
10 10 7 6 5 6 7 5 3 2 1 3 2 2 3 3 2 3 4 5 5 6 6 7 7 7 8 7 6 6 6 8 8 6 7 6 7 6 7 7 6 6 5 4 4 4 6 5 4 6 6 5 8 8 10 8 6 5 4 5 5 7 8 9 10 4 2 3 2 2 3 5 3 1 4 4 7 2 5 8 5 11 11 12 10
12 11 9 9 6 6 7 6 5 3 2 4 2 2 3 3 3 3 4 4 3 4 5 6 6 6 6 6 6 5 5 6 7 5 5 5 5 6 5 6 5 5 4 3 2 3 2 4 3 3 3 4 6 7 8 9 7 10 5 4 6 4 4 1 3 5 7 3 2 1 4 1 2 3 6 4 4 8 9 11 7 7 11 10 9
12 12 10 11 9 8 7 7 6 4 4 5 2 3 2 4 3 3 3 4 4 5 5 5 6 5 5 5 6 7 5 4 4 6 4 4 4 5 4 3 3 3 4 5 5 5 3 2 3 3 6 7 8 7 6 6 8 7 8 5 2 5 5 5 3 7 6 3 2 2 3 5 2 3 7 6 14 16 6 13 8 12 12 9 6
11 12 10 10 11 9 8 8 8 5 7 6 4 3 3 3 4 3 3 3 3 4 4 3 4 4 4 3 4 5 6 4 3 2 3 4 3 4 4 4 4 4 4 3 1 1 0 1 2 3 4 5 5 6 7 7 7 6 8 6 5 5 4 3 3 2 1 3 3 2 2 6 6 7 8 12 4 3 6 11 8 3 4 4 9
Wind_Direction
196 114 74 352 25 54 84 207 162 136 229 228 222 224 224 226 231 229 220 208 200 197 190 190 195 200 239 243 123 116 151 107 165 209 241 253 268 277 293 285 288 317 308 296 309 316 311 300 287 288 294 293 297 276 238 219 215 209 200 198 198 198 211 231 250 305 319 315 315 315 317 320 247 159 149 139 133 133 136 105 114 154 153 168 166
330 60 58 11 13 26 33 119 125 128 193 198 187 190 192 214 214 210 201 195 192 186 174 166 167 210 289 329 47 55 72 71 358 218 260 296 282 275 294 306 328 313 307 307 305 298 295 292 284 280 278 280 271 261 251 244 222 207 189 191 193 193 215 246 276 328 328 326 320 313 304 293 144 134 140 154 152 157 169 175 189 149 145 157 154
348 17 58 3 9 25 60 99 104 129 153 145 163 167 165 192 203 199 191 198 181 166 146 150 140 114 66 50 57 66 19 5 329 335 292 301 304 331 309 308 295 299 296 297 296 293 290 283 278 278 275 271 261 253 250 245 226 200 193 190 185 179 209 253 307 341 347 333 325 313 295 214 158 153 160 165 161 171 177 174 166 156 142 145 143
30 19 25 356 351 23 60 98 104 130 140 148 155 157 167 172 194 195 192 197 188 162 116 90 86 68 68 74 83 77 293 261 235 248 190 242 271 332 305 291 286 278 282 294 293 294 296 293 288 281 262 251 252 248 255 247 233 214 199 187 184 164 217 258 323 350 358 346 343 357 85 111 143 172 178 183 190 180 177 169 169 166 162 157 158
36 65 33 15 5 11 19 45 127 129 144 151 158 166 172 177 178 170 161 170 162 160 156 175 177 102 70 60 58 356 268 247 256 267 302 347 300 331 296 285 275 280 286 283 286 285 278 278 270 264 244 229 221 233 249 262 240 207 189 172 177 187 221 288 350 18 6 16 35 85 111 128 132 172 165 164 175 174 169 165 156 153 152 156 153
26 87 77 65 11 4 4 29 96 120 149 157 154 162 164 155 160 165 180 180 167 171 168 161 86 50 42 37 316 280 280 302 274 29 306 307 296 282 273 267 274 281 278 279 287 299 304 299 290 268 245 227 218 223 249 281 269 240 192 147 129 229 238 308 44 41 34 56 50 114 117 120 124 129 161 155 156 165 165 165 160 154 152 154 159
333 79 122 137 123 338 358 15 8 260 195 173 178 172 147 143 155 168 175 161 162 182 180 178 231 340 340 298 298 290 293 326 346 309 288 298 284 277 278 274 274 272 279 283 283 295 286 284 277 264 249 238 236 225 240 266 307 288 315 92 207 203 171 70 56 59 75 80 110 119 114 122 124 120 148 143 144 148 149 146 146 142 135 125 135
143 100 193 162 127 326 310 308 282 262 259 234 212 187 194 187 177 171 142 129 134 180 193 201 215 235 244 212 211 220 322 313 310 299 275 256 254 248 265 293 284 276 283 283 279 284 290 281 278 270 257 253 254 268 290 309 295 281 242 216 201 147 82 73 55 33 71 87 125 129 121 121 125 118 140 143 149 146 140 136 140 150 152 158 102
355 93 206 204 200 266 260 245 239 264 263 261 240 234 203 234 212 169 106 88 144 207 220 217 220 248 270 277 285 96 32 294 303 285 274 263 257 240 207 249 271 278 283 283 283 280 288 287 272 253 240 243 262 299 299 301 293 246 223 206 167 92 81 69 69 35 72 106 86 97 102 106 100 113 135 147 149 145 129 127 130 157 165 154 129
304 351 260 193 211 260 257 245 241 250 257 263 274 311 293 264 250 219 54 31 192 220 233 232 220 247 287 283 291 62 298 283 288 278 262 257 266 264 223 209 253 264 271 277 277 283 273 274 259 239 238 241 265 311 319 317 318 277 253 224 86 78 73 79 56 95 118 110 137 131 132 137 134 132 161 160 170 180 181 172 167 165 142 159 153
321 287 280 270 264 273 273 264 257 245 250 250 257 277 295 286 273 332 1 7 326 196 194 189 152 54 1 309 288 95 275 277 269 256 253 254 258 257 269 241 234 242 257 264 264 265 263 248 227 211 212 233 272 316 321 318 330 299 282 59 75 84 87 87 102 94 102 139 127 134 157 194 141 129 191 194 190 195 182 171 180 170 154 133 113
163 252 238 270 295 300 293 283 268 262 265 265 282 289 298 282 276 302 330 346 331 340 302 179 148 134 203 261 268 172 295 272 257 250 245 240 230 216 218 222 226 230 244 251 248 232 219 218 195 188 181 183 189 276 291 324 297 282 271 96 100 95 106 101 99 128 130 154 148 134 142 174 191 186 247 198 178 179 181 180 164 153 141 124 117
154 259 272 284 294 299 299 304 300 286 281 305 319 298 279 278 281 284 288 322 320 312 315 301 320 351 246 248 252 196 251 267 258 249 246 243 236 224 201 204 212 214 231 244 240 225 220 194 179 170 175 180 191 199 247 358 135 182 166 114 109 99 91 111 136 139 139 137 127 142 175 173 200 238 234 166 153 154 151 146 127 112 101 100 95
226 250 290 292 270 296 297 293 291 287 290 331 329 304 298 284 285 284 271 288 290 297 298 324 2 260 253 270 264 235 116 238 238 249 272 278 274 268 253 224 208 209 219 209 209 205 217 185 162 167 173 183 180 187 129 92 117 146 140 126 104 110 112 110 145 143 129 117 116 154 169 160 166 218 170 123 123 118 133 129 129 119 106 97 97
252 273 267 268 286 275 288 283 287 299 303 313 310 302 299 285 288 287 277 273 283 297 313 300 271 245 234 251 282 299 337 294 282 273 259 267 254 237 238 230 230 215 210 192 180 186 183 154 153 165 170 163 153 160 103 102 111 141 143 122 117 115 117 115 130 129 134 131 126 142 161 146 168 161 134 118 118 131 121 117 111 106 101 99 97
277 263 264 277 268 272 271 280 285 290 296 300 298 283 269 275 287 283 274 265 288 304 297 283 275 257 253 260 269 193 267 273 273 266 257 258 249 247 226 211 220 225 213 183 171 152 140 125 158 161 143 141 133 92 110 129 137 133 128 121 118 114 113 121 120 111 109 123 128 149 157 144 146 126 124 120 126 119 116 104 105 106 101 95 93
266 276 273 257 275 281 276 272 271 281 270 274 276 273 273 290 297 288 283 289 277 273 283 285 278 265 254 268 278 266 287 269 265 261 252 251 249 237 225 223 236 241 228 187 156 136 144 154 164 165 133 127 100 90 133 156 151 145 125 122 123 122 120 123 141 145 145 135 129 123 131 128 138 121 110 111 101 101 106 108 104 94 91 93 92
283 271 238 269 267 298 279 286 289 269 259 273 275 284 298 306 292 289 285 279 277 263 272 274 271 268 271 235 267 304 276 266 253 262 257 249 244 241 249 232 233 241 231 177 123 115 127 152 166 141 118 96 100 154 130 143 143 132 115 110 112 107 109 112 150 135 123 126 116 134 134 145 127 123 110 100 103 106 103 98 88 89 90 89 85
328 295 313 327 297 88 295 308 283 269 266 257 272 289 311 304 287 299 293 289 274 271 247 250 254 270 300 281 276 277 272 263 260 257 252 246 235 227 222 211 227 239 206 122 109 101 106 131 143 137 131 143 154 136 138 108 104 103 99 96 100 106 110 112 115 101 87 94 120 131 132 133 114 107 106 105 97 100 105 103 107 97 91 85 85
350 7 315 8 332 4 299 294 301 317 318 275 274 298 300 308 308 301 297 288 275 266 245 222 245 284 273 274 295 265 253 245 248 243 248 247 242 217 216 211 196 238 218 179 139 124 122 126 129 125 119 118 124 112 103 103 88 86 79 83 92 101 109 131 147 133 126 128 132 134 130 112 105 93 98 94 99 100 92 95 96 100 94 96 92
6 328 300 276 282 305 315 303 310 308 308 273 279 274 283 306 308 305 293 298 277 274 271 242 269 238 251 267 274 245 242 233 212 222 240 221 233 233 226 228 236 229 207 165 137 122 118 117 116 113 106 93 86 83 88 84 83 75 78 84 88 104 136 128 107 116 117 107 134 134 108 97 92 88 82 88 79 76 77 79 75 73 80 78 81
354 315 312 320 324 319 317 308 297 299 302 275 284 274 279 314 291 287 275 265 273 293 273 270 265 231 245 231 224 237 227 220 213 197 202 218 223 232 232 241 252 240 193 139 129 106 102 106 107 101 96 85 83 92 82 76 70 72 76 79 94 105 134 131 141 123 118 124 132 119 73 78 79 80 71 63 64 60 59 58 67 75 73 73 72
343 345 338 350 344 321 321 317 298 300 298 286 289 288 306 298 299 292 283 290 273 252 258 249 219 231 226 210 216 227 225 207 196 200 184 202 214 219 222 238 254 232 157 140 105 100 96 103 100 95 82 79 90 96 98 85 76 67 77 87 98 153 131 118 123 113 123 131 138 63 58 63 67 62 60 49 42 50 43 47 59 62 65 72 78
350 357 343 349 344 329 318 294 306 304 306 305 315 305 278 296 294 293 289 275 265 272 246 231 229 223 219 210 206 226 240 213 218 239 203 193 194 191 164 234 232 150 99 114 98 94 93 93 94 83 87 91 97 92 75 69 73 91 96 90 131 118 121 116 119 122 121 137 137 33 44 54 57 50 46 39 39 39 36 38 49 60 65 72 76
0 338 334 346 332 328 326 309 307 306 313 315 333 306 306 360 2 5 294 280 281 275 268 220 224 221 228 210 208 211 217 227 220 198 181 180 181 178 167 160 155 156 86 130 106 107 98 103 99 93 92 93 85 97 122 108 112 89 120 152 135 121 139 125 131 118 133 137 134 27 37 45 45 45 39 32 29 38 33 35 45 45 59 69 73
329 355 333 337 334 328 320 310 313 312 309 303 342 327 326 356 345 257 239 244 249 253 247 245 204 217 217 209 210 200 206 210 210 180 168 166 167 172 157 169 173 163 116 116 122 121 105 109 104 99 95 88 121 127 145 116 108 118 142 123 155 126 151 125 116 120 129 140 101 22 29 38 36 38 33 31 32 31 30 29 40 44 44 54 65
353 329 337 334 329 324 313 325 307 316 322 327 321 320 22 359 6 63 217 222 258 239 239 220 209 171 178 183 185 192 191 191 187 176 176 162 156 170 177 171 165 151 132 137 133 108 111 116 115 102 109 117 111 116 87 135 135 112 161 151 121 156 119 130 122 118 139 139 80 12 27 27 30 31 32 31 31 29 29 28 33 42 40 50 57
340 332 334 335 343 315 312 282 305 319 320 324 335 341 12 338 24 44 111 48 258 253 241 89 217 149 143 158 152 161 170 170 176 166 155 162 161 174 172 169 163 159 154 145 129 131 131 124 127 135 129 135 128 123 114 69 118 126 162 148 135 158 124 126 133 120 129 127 73 25 17 24 25 29 31 32 31 30 26 29 30 32 37 45 55
330 343 332 335 329 316 323 322 323 314 323 335 339 342 352 8 2 22 28 11 68 294 279 96 164 93 123 144 143 139 145 161 161 159 152 164 172 171 166 168 168 167 150 140 142 134 125 124 127 129 130 128 124 118 113 138 117 147 141 135 173 133 122 139 122 122 135 80 45 18 17 19 27 29 31 32 30 27 25 27 29 32 34 39 47
332 342 333 325 324 322 320 318 317 326 329 324 341 345 356 5 26 26 6 60 182 171 319 88 128 140 123 138 144 130 139 153 147 152 158 169 166 166 169 171 172 166 152 148 147 129 129 140 138 136 140 132 138 150 125 123 126 168 160 155 132 152 140 141 124 130 124 101 39 22 15 22 26 30 31 31 30 27 26 27 29 32 33 37 41
335 347 323 330 307 326 311 307 310 323 325 330 1 346 11 19 29 23 56 55 35 1 30 27 119 109 115 141 114 97 105 132 160 168 166 165 166 162 169 173 170 165 159 148 135 137 141 143 147 145 142 139 134 141 125 143 142 150 140 180 159 152 142 134 116 95 74 85 38 27 23 19 26 29 30 31 29 30 29 29 30 31 35 35 40
349 339 320 336 339 321 319 318 326 340 341 338 1 15 26 32 33 50 34 53 37 58 149 20 20 50 100 112 92 129 158 181 174 161 163 162 162 165 170 167 178 165 146 142 143 144 138 154 149 145 147 134 130 135 129 136 144 162 162 180 163 169 115 91 104 158 150 94 73 31 26 25 23 27 29 30 32 32 31 31 33 34 36 37 42
353 331 333 358 329 320 305 318 318 343 6 345 17 35 40 44 57 68 85 62 78 140 103 161 182 152 70 70 126 148 162 174 163 162 160 161 167 164 166 174 170 156 150 152 148 135 152 138 131 120 131 132 145 145 125 155 153 152 168 192 192 181 168 157 119 74 78 71 62 51 27 14 21 24 27 31 34 35 34 34 36 36 37 39 43
347 339 354 355 326 319 326 321 326 348 1 333 39 54 61 66 82 81 75 75 95 91 98 140 150 126 122 128 130 137 149 158 158 151 152 168 162 159 167 170 167 152 155 144 137 134 143 128 149 145 149 142 155 146 154 152 149 154 183 184 187 170 133 167 181 161 102 75 132 101 56 20 18 14 18 27 34 37 40 40 39 39 39 40 43
355 358 356 322 334 331 338 321 332 322 352 285 43 57 61 71 85 92 93 99 117 103 98 100 111 124 132 139 136 139 147 148 150 150 156 165 159 160 162 165 157 145 146 147 142 148 135 140 158 158 147 158 152 158 153 160 169 nan 169 186 194 168 188 174 184 181 174 171 89 193 163 24 35 1 7 358 22 37 41 45 44 43 42 43 44
12 342 317 346 336 325 349 323 328 334 296 314 309 98 86 73 86 109 116 111 105 110 106 91 102 119 132 143 142 142 145 149 151 148 159 149 165 159 164 169 153 145 152 151 140 139 157 164 160 158 160 169 157 138 161 150 160 194 174 195 191 165 184 178 117 206 236 58 219 292 321 215 70 348 331 344 344 13 27 39 47 46 47 44 46
348 338 333 356 343 318 10 330 333 319 322 309 309 107 103 96 83 79 113 112 120 119 115 113 107 115 140 146 141 143 146 150 153 149 149 154 159 164 171 153 148 152 146 145 129 145 150 151 156 163 166 156 151 158 172 143 139 173 174 211 190 181 190 145 195 207 186 190 298 337 337 6 346 336 343 354 340 355 13 25 32 46 46 47 43
325 348 349 351 360 327 14 330 326 326 312 313 312 2 85 89 82 102 98 107 122 129 137 128 122 134 144 150 143 147 150 151 154 156 152 146 172 143 170 158 150 150 145 138 136 176 149 115 160 174 167 164 165 168 160 159 152 182 187 221 198 165 181 184 176 186 180 40 70 24 350 8 353 334 358 20 343 4 9 11 25 34 37 37 34
11 339 358 347 341 348 309 316 347 328 319 316 329 326 48 88 103 94 102 111 122 145 145 135 143 138 147 158 146 148 153 156 157 153 150 152 158 142 161 152 149 148 140 139 134 170 171 173 164 184 162 171 169 169 175 156 166 167 188 210 185 181 165 203 161 117 345 19 31 8 6 12 1 350 354 24 359 8 18 8 6 24 32 28 37
8 314 342 350 331 336 320 340 350 332 319 326 355 2 65 88 95 114 110 115 126 136 134 142 138 148 166 155 144 156 160 159 159 152 151 151 154 156 156 144 151 145 142 136 145 152 170 167 171 169 165 174 165 166 184 158 174 168 180 165 202 166 150 168 97 72 99 30 5 37 7 nan 21 356 2 12 20 17 3 22 19 38 59 33 32
347 324 352 351 346 352 329 349 348 342 342 349 26 44 75 92 101 94 104 116 125 127 128 137 144 159 161 159 151 167 160 164 158 158 152 157 154 160 156 149 148 156 144 148 161 174 179 156 174 142 150 178 186 174 208 172 175 179 nan 142 171 153 146 108 77 62 22 30 3 14 37 352 3 8 360 23 0 21 23 19 19 40 44 32 19
348 341 2 351 355 353 342 347 352 354 358 355 69 104 109 108 97 93 99 109 119 116 128 131 144 165 159 170 147 174 168 163 159 155 154 152 150 154 156 153 153 159 154 154 163 152 155 139 153 150 131 191 177 187 205 177 136 145 156 122 111 128 71 75 47 69 39 26 6 14 4 29 11 3 12 8 1 23 30 26 357 28 16 29 27
352 354 357 349 356 348 351 348 349 5 4 349 61 160 111 103 103 110 103 105 104 116 127 140 149 155 156 155 156 176 160 158 156 152 153 149 154 159 156 160 153 158 147 136 132 152 134 144 127 150 169 153 175 204 193 177 157 169 186 146 nan 86 nan 99 80 84 97 355 31 10 13 13 14 5 8 8 6 10 27 312 13 21 19 6 355
352 347 360 347 356 344 352 1 344 13 357 309 77 266 129 123 130 115 127 114 114 124 131 138 142 153 143 149 164 158 145 152 149 148 150 155 156 155 156 164 160 160 157 161 143 140 160 119 136 162 144 153 118 201 170 196 165 182 159 120 78 nan 298 87 71 24 40 35 57 51 8 23 22 8 7 31 12 17 17 0 13 13 8 347 343
345 333 0 347 354 340 349 358 350 9 358 277 126 232 208 131 138 149 139 135 125 122 121 123 134 142 136 140 154 148 141 147 150 147 151 163 154 156 162 167 170 158 158 160 131 111 118 146 168 144 146 182 152 190 160 171 222 178 163 174 134 nan 115 187 78 360 85 86 32 65 224 nan nan 18 23 31 22 15 347 359 360 9 339 343 351
323 317 353 338 340 331 336 352 350 2 335 289 230 205 199 135 128 132 120 120 122 115 117 116 124 127 125 137 152 141 142 145 152 149 153 159 151 157 160 164 170 177 158 162 178 185 133 107 204 125 176 174 160 181 113 125 179 233 145 24 125 162 189 128 113 222 118 133 nan 194 178 158 138 149 23 63 31 18 328 31 5 354 353 351 346
314 303 316 312 332 315 323 341 330 346 314 292 260 203 205 159 129 118 127 126 127 131 132 133 141 136 139 146 147 145 147 144 153 149 166 162 159 164 167 163 172 177 170 172 159 117 17 125 193 165 164 185 148 145 180 139 180 126 116 175 130 102 129 116 102 164 203 161 181 148 99 158 163 200 147 43 306 355 13 1 54 339 322 345 350
305 303 302 292 309 310 317 323 298 318 319 285 275 219 212 183 176 156 147 149 137 141 145 140 150 150 160 147 159 152 151 150 148 159 161 166 158 170 171 167 177 175 176 170 174 173 201 207 182 177 171 162 153 139 159 130 147 124 183 161 156 154 150 154 154 143 357 261 194 180 229 117 214 121 137 249 216 131 6 318 46 309 352 352 3
302 302 297 287 291 303 309 309 294 295 292 300 285 253 212 201 202 188 177 166 147 145 158 153 166 168 169 166 167 163 172 152 152 166 155 166 172 167 176 175 180 185 171 187 189 228 200 205 177 172 150 140 136 163 146 143 156 143 182 140 164 128 115 276 79 188 166 277 209 48 293 200 230 230 96 84 275 53 350 331 339 321 342 357 4
295 294 297 291 293 294 306 311 297 283 274 298 289 275 236 216 198 183 204 183 167 196 169 176 177 186 184 181 183 176 179 169 166 158 181 172 170 176 174 177 182 184 180 202 204 228 216 176 150 149 187 172 171 142 126 131 135 129 146 146 145 127 128 140 234 283 264 53 297 175 277 318 321 14 57 15 350 51 28 309 346 3 354 355 15
287 295 295 278 290 295 302 310 301 276 278 288 295 292 259 234 206 204 201 193 180 211 193 191 192 204 189 197 210 190 176 202 181 208 160 173 180 171 167 191 174 205 186 190 173 135 28 87 136 228 167 161 157 152 149 125 117 125 116 108 103 95 83 78 142 142 63 333 20 283 358 340 32 61 58 54 41 110 48 327 350 346 330 358 27